Location: Stanford
(52.2833°N, 2.4333°W)
Time: 01:58:11
(UTC+00:00)

Cosmos 2227 Rocket - Pass Details

Date: 22 January 2021
Orbit: 837 x 846 km, 71.0° (Epoch: 28 February)

Event Time Altitude Azimuth Distance (km) Brightness Sun altitude
Rises 17:32:36 0° 254° (WSW) 3,398 7.8 -8.2°
Reaches altitude 10° 17:35:28 10° 267° (W) 2,468 6.0 -8.6°
Maximum altitude 17:40:08 26° 322° (NW) 1,629 3.9 -9.2°
Drops below altitude 10° 17:44:49 10° 18° (NNE) 2,481 4.3 -9.9°
Enters shadow 17:46:48 - 28° (NNE) 3,106 4.7 -10.2°
